• In Hungary
  • List of Countries
  • For 7 days
  • Water Temperature
  • Satellite Maps
  • Weather Map
  • News
  • Weather Widgets
  • user-avatar
    Login

    Hourly Weather Biancavilla

    Today, 22 September, Saturday

    Time Temperature Precipitation Wind Pressure Humidity
    00:00 +21°C° 0 mm 2 mps 715 mmHg 76%
    01:00 +20°C° 0 mm 2 mps 715 mmHg 76%
    02:00 +20°C° 0 mm 2 mps 715 mmHg 77%
    03:00 +20°C° 0 mm 2 mps 715 mmHg 77%
    04:00 +20°C° 0 mm 2 mps 715 mmHg 77%
    05:00 +20°C° 0 mm 2 mps 715 mmHg 77%
    06:00 +21°C° 0 mm 2 mps 715 mmHg 76%
    07:00 +21°C° 0 mm 2 mps 715 mmHg 74%
    08:00 +24°C° 0 mm 2 mps 716 mmHg 69%
    09:00 +25°C° 0 mm 2 mps 716 mmHg 63%
    10:00 +27°C° 0 mm 2 mps 716 mmHg 58%
    11:00 +27°C° 0.2 mm 2 mps 716 mmHg 56%
    12:00 +28°C° 0.2 mm 2 mps 716 mmHg 55%
    13:00 +28°C° 0.2 mm 3 mps 716 mmHg 54%
    14:00 +28°C° 0.3 mm 3 mps 716 mmHg 55%
    15:00 +28°C° 0.3 mm 2 mps 716 mmHg 56%
    16:00 +27°C° 0.3 mm 2 mps 716 mmHg 58%
    17:00 +26°C° 0.1 mm 2 mps 716 mmHg 63%
    18:00 +25°C° 0.1 mm 1 mps 716 mmHg 68%
    19:00 +24°C° 0.1 mm 1 mps 716 mmHg 73%
    20:00 +24°C° 0 mm 1 mps 717 mmHg 75%
    21:00 +24°C° 0 mm 1 mps 717 mmHg 76%
    22:00 +21°C° 0 mm 0 mps 717 mmHg 78%
    23:00 +21°C° 0 mm 0 mps 717 mmHg 79%

    Tomorrow, 23 September, Sunday

    Time Temperature Precipitation Wind Pressure Humidity
    00:00 +21°C° 0 mm 0 mps 717 mmHg 80%
    01:00 +20°C° 0 mm 0 mps 717 mmHg 81%
    02:00 +20°C° 0 mm 0 mps 717 mmHg 81%
    03:00 +20°C° 0 mm 0 mps 717 mmHg 82%
    04:00 +20°C° 0 mm 0 mps 717 mmHg 82%
    05:00 +20°C° 0 mm 0 mps 717 mmHg 81%
    06:00 +21°C° 0 mm 0 mps 717 mmHg 79%
    07:00 +23°C° 0 mm 1 mps 717 mmHg 77%
    08:00 +24°C° 0 mm 1 mps 718 mmHg 71%
    09:00 +26°C° 0 mm 1 mps 718 mmHg 64%
    10:00 +27°C° 0 mm 1 mps 719 mmHg 58%
    11:00 +28°C° 0 mm 2 mps 719 mmHg 56%
    12:00 +28°C° 0 mm 2 mps 719 mmHg 54%
    13:00 +29°C° 0 mm 2 mps 719 mmHg 53%
    14:00 +28°C° 0 mm 2 mps 719 mmHg 55%
    15:00 +28°C° 0 mm 2 mps 718 mmHg 57%
    16:00 +27°C° 0 mm 2 mps 718 mmHg 59%
    17:00 +26°C° 0 mm 2 mps 718 mmHg 64%
    18:00 +25°C° 0 mm 2 mps 718 mmHg 70%
    19:00 +24°C° 0 mm 1 mps 718 mmHg 75%
    20:00 +24°C° 0 mm 1 mps 718 mmHg 77%
    21:00 +24°C° 0 mm 1 mps 718 mmHg 79%
    22:00 +23°C° 0 mm 1 mps 718 mmHg 81%
    23:00 +23°C° 0 mm 1 mps 718 mmHg 82%

    Day after tomorrow, 24 September, Monday

    Time Temperature Precipitation Wind Pressure Humidity
    00:00 +23°C° 0 mm 1 mps 718 mmHg 83%
    01:00 +23°C° 0 mm 1 mps 718 mmHg 85%
    02:00 +22°C° 0 mm 1 mps 717 mmHg 86%
    03:00 +22°C° 0 mm 1 mps 717 mmHg 87%
    04:00 +22°C° 0 mm 1 mps 717 mmHg 87%
    05:00 +22°C° 0 mm 1 mps 717 mmHg 86%
    06:00 +23°C° 0 mm 1 mps 717 mmHg 84%
    07:00 +23°C° 0 mm 1 mps 716 mmHg 82%
    08:00 +25°C° 0 mm 1 mps 717 mmHg 74%
    09:00 +26°C° 0 mm 1 mps 717 mmHg 66%
    10:00 +28°C° 0 mm 2 mps 717 mmHg 58%
    11:00 +28°C° 0 mm 2 mps 717 mmHg 55%
    12:00 +29°C° 0 mm 3 mps 717 mmHg 53%
    13:00 +30°C° 0 mm 3 mps 716 mmHg 51%
    14:00 +29°C° 0 mm 3 mps 716 mmHg 53%
    15:00 +29°C° 0 mm 3 mps 716 mmHg 56%
    16:00 +28°C° 0 mm 3 mps 715 mmHg 58%
    17:00 +27°C° 0 mm 2 mps 715 mmHg 63%
    18:00 +26°C° 0 mm 2 mps 715 mmHg 69%
    19:00 +24°C° 0 mm 2 mps 715 mmHg 74%
    20:00 +24°C° 0 mm 1 mps 715 mmHg 76%
    21:00 +24°C° 0 mm 1 mps 716 mmHg 79%
    22:00 +23°C° 0 mm 1 mps 716 mmHg 81%
    23:00 +23°C° 0 mm 1 mps 716 mmHg 81%

    25 September, Tuesday

    Time Temperature Precipitation Wind Pressure Humidity
    00:00 +23°C° 0 mm 1 mps 715 mmHg 81%
    01:00 +22°C° 0 mm 1 mps 715 mmHg 81%
    02:00 +22°C° 0 mm 1 mps 715 mmHg 81%
    03:00 +21°C° 0 mm 2 mps 715 mmHg 81%
    04:00 +21°C° 0 mm 2 mps 715 mmHg 81%
    05:00 +21°C° 0 mm 2 mps 715 mmHg 78%
    06:00 +21°C° 0 mm 2 mps 716 mmHg 76%
    07:00 +23°C° 0 mm 2 mps 716 mmHg 73%
    08:00 +24°C° 0 mm 2 mps 717 mmHg 67%
    09:00 +26°C° 0 mm 3 mps 717 mmHg 61%
    10:00 +27°C° 0 mm 3 mps 718 mmHg 55%
    11:00 +27°C° 0 mm 4 mps 718 mmHg 56%
    12:00 +27°C° 0 mm 4 mps 718 mmHg 57%
    13:00 +27°C° 0 mm 5 mps 718 mmHg 58%
    14:00 +26°C° 0.1 mm 4 mps 717 mmHg 60%
    15:00 +25°C° 0.1 mm 4 mps 717 mmHg 62%
    16:00 +25°C° 0.1 mm 4 mps 717 mmHg 64%
    17:00 +23°C° 0.3 mm 4 mps 718 mmHg 66%
    18:00 +22°C° 0.3 mm 4 mps 718 mmHg 69%
    19:00 +21°C° 0.3 mm 3 mps 718 mmHg 72%
    20:00 +21°C° 0.1 mm 3 mps 719 mmHg 71%
    21:00 +21°C° 0.1 mm 3 mps 719 mmHg 71%
    22:00 +21°C° 0.1 mm 3 mps 719 mmHg 70%
    23:00 +20°C° 0.1 mm 3 mps 719 mmHg 70%

    26 September, Wednesday

    Time Temperature Precipitation Wind Pressure Humidity
    00:00 +20°C° 0.1 mm 2 mps 719 mmHg 71%
    01:00 +20°C° 0.1 mm 2 mps 719 mmHg 71%
    02:00 +19°C° 0 mm 2 mps 719 mmHg 71%
    03:00 +19°C° 0 mm 3 mps 719 mmHg 71%
    04:00 +19°C° 0 mm 3 mps 719 mmHg 71%
    05:00 +19°C° 0 mm 3 mps 720 mmHg 70%
    06:00 +19°C° 0 mm 3 mps 720 mmHg 69%
    07:00 +19°C° 0 mm 3 mps 720 mmHg 68%
    08:00 +20°C° 0 mm 4 mps 721 mmHg 63%
    09:00 +21°C° 0 mm 4 mps 721 mmHg 57%
    10:00 +22°C° 0 mm 5 mps 721 mmHg 52%
    11:00 +22°C° 0 mm 5 mps 721 mmHg 51%
    12:00 +23°C° 0 mm 5 mps 721 mmHg 49%
    13:00 +23°C° 0 mm 5 mps 721 mmHg 47%
    14:00 +23°C° 0 mm 5 mps 721 mmHg 48%
    15:00 +22°C° 0 mm 6 mps 721 mmHg 48%
    16:00 +22°C° 0 mm 6 mps 721 mmHg 48%
    17:00 +21°C° 0 mm 5 mps 722 mmHg 50%
    18:00 +20°C° 0 mm 5 mps 722 mmHg 51%
    19:00 +19°C° 0 mm 5 mps 722 mmHg 53%
    20:00 +17°C° 0 mm 5 mps 723 mmHg 52%
    21:00 +17°C° 0 mm 5 mps 723 mmHg 51%
    22:00 +16°C° 0 mm 5 mps 723 mmHg 49%
    23:00 +17°C° 0 mm 4 mps 723 mmHg 48%

    27 September, Thursday

    Time Temperature Precipitation Wind Pressure Humidity
    00:00 +15°C° 0 mm 4 mps 723 mmHg 47%
    01:00 +15°C° 0 mm 4 mps 722 mmHg 46%
    02:00 +15°C° 0 mm 4 mps 722 mmHg 46%
    03:00 +14°C° 0 mm 3 mps 722 mmHg 46%
    04:00 +14°C° 0 mm 3 mps 722 mmHg 47%
    05:00 +14°C° 0 mm 3 mps 722 mmHg 47%
    06:00 +16°C° 0 mm 3 mps 722 mmHg 48%
    07:00 +16°C° 0 mm 2 mps 722 mmHg 49%
    08:00 +18°C° 0 mm 3 mps 722 mmHg 44%
    09:00 +19°C° 0 mm 3 mps 722 mmHg 39%
    10:00 +20°C° 0 mm 3 mps 722 mmHg 34%
    11:00 +21°C° 0 mm 3 mps 722 mmHg 33%
    12:00 +22°C° 0 mm 3 mps 722 mmHg 31%
    13:00 +22°C° 0 mm 3 mps 721 mmHg 29%
    14:00 +22°C° 0 mm 4 mps 721 mmHg 30%
    15:00 +22°C° 0 mm 4 mps 720 mmHg 31%
    16:00 +21°C° 0 mm 4 mps 719 mmHg 33%
    17:00 +20°C° 0 mm 4 mps 719 mmHg 38%
    18:00 +19°C° 0 mm 3 mps 719 mmHg 43%
    19:00 +17°C° 0 mm 3 mps 718 mmHg 49%
    20:00 +17°C° 0 mm 2 mps 718 mmHg 51%
    21:00 +17°C° 0 mm 2 mps 718 mmHg 52%
    22:00 +16°C° 0 mm 2 mps 718 mmHg 54%
    23:00 +16°C° 0 mm 2 mps 717 mmHg 55%
    Show more